When you browse on this site, cookies collect data to enhance your experience and personalize the content and advertising you see.
Visit our Privacy Policy to learn more. By continuing to use the site, you agree to this use of cookies and data.
  • In Portugal
  • List of Countries
  • For 7 days
  • Water Temperature
  • Weather Map
  • Weather Widgets
  • user-avatar
    Login

    Hourly Weather Lankaran

    Today, 17 February, Monday

    Time Temperature Precipitation Wind Pressure Humidity
    00:00 -4°C° 0.6 mm 2 mps 637 mmHg 95%
    01:00 -5°C° 0.7 mm 2 mps 637 mmHg 95%
    02:00 -5°C° 0.7 mm 2 mps 637 mmHg 96%
    03:00 -6°C° 0.7 mm 3 mps 636 mmHg 96%
    04:00 -7°C° 0.7 mm 3 mps 637 mmHg 96%
    05:00 -6°C° 0.7 mm 2 mps 637 mmHg 95%
    06:00 -6°C° 0.7 mm 2 mps 637 mmHg 95%
    07:00 -6°C° 0.6 mm 2 mps 637 mmHg 94%
    08:00 -6°C° 0.6 mm 2 mps 637 mmHg 94%
    09:00 -6°C° 0.6 mm 2 mps 638 mmHg 93%
    10:00 -5°C° 0.5 mm 2 mps 638 mmHg 94%
    11:00 -5°C° 0.5 mm 2 mps 638 mmHg 94%
    12:00 -5°C° 0.5 mm 2 mps 638 mmHg 94%
    13:00 -5°C° 0.2 mm 2 mps 638 mmHg 93%
    14:00 -5°C° 0.2 mm 2 mps 637 mmHg 91%
    15:00 -5°C° 0.2 mm 2 mps 637 mmHg 89%
    16:00 -5°C° 0.2 mm 2 mps 638 mmHg 90%
    17:00 -6°C° 0.2 mm 2 mps 638 mmHg 91%
    18:00 -4°C° 0.2 mm 1 mps 638 mmHg 92%
    19:00 -6°C° 0.1 mm 1 mps 638 mmHg 91%
    20:00 -6°C° 0.1 mm 1 mps 638 mmHg 90%
    21:00 -6°C° 0.1 mm 1 mps 638 mmHg 88%
    22:00 -6°C° 0 mm 1 mps 638 mmHg 88%
    23:00 -6°C° 0 mm 1 mps 638 mmHg 87%

    Tomorrow, 18 February, Tuesday

    Time Temperature Precipitation Wind Pressure Humidity
    00:00 -6°C° 0 mm 1 mps 638 mmHg 86%
    01:00 -7°C° 0 mm 1 mps 638 mmHg 86%
    02:00 -7°C° 0 mm 1 mps 638 mmHg 85%
    03:00 -7°C° 0 mm 1 mps 638 mmHg 85%
    04:00 -7°C° 0 mm 1 mps 638 mmHg 84%
    05:00 -7°C° 0 mm 1 mps 638 mmHg 84%
    06:00 -7°C° 0 mm 1 mps 638 mmHg 83%
    07:00 -6°C° 0 mm 1 mps 638 mmHg 82%
    08:00 -3°C° 0 mm 1 mps 639 mmHg 80%
    09:00 -2°C° 0 mm 1 mps 640 mmHg 79%
    10:00 -1°C° 0 mm 1 mps 640 mmHg 81%
    11:00 -1°C° 0 mm 1 mps 639 mmHg 83%
    12:00 0°C° 0 mm 1 mps 639 mmHg 85%
    13:00 0°C° 0 mm 1 mps 639 mmHg 87%
    14:00 0°C° 0 mm 1 mps 639 mmHg 88%
    15:00 +1°C° 0 mm 1 mps 638 mmHg 90%
    16:00 0°C° 0 mm 1 mps 638 mmHg 91%
    17:00 -1°C° 0 mm 1 mps 638 mmHg 92%
    18:00 -1°C° 0 mm 1 mps 638 mmHg 93%
    19:00 -1°C° 0 mm 1 mps 637 mmHg 92%
    20:00 -1°C° 0 mm 1 mps 637 mmHg 90%
    21:00 -2°C° 0 mm 1 mps 637 mmHg 88%
    22:00 -2°C° 0 mm 1 mps 637 mmHg 87%
    23:00 -2°C° 0 mm 1 mps 636 mmHg 86%

    Day after tomorrow, 19 February, Wednesday

    Time Temperature Precipitation Wind Pressure Humidity
    00:00 -2°C° 0 mm 1 mps 636 mmHg 85%
    01:00 -1°C° 0 mm 1 mps 636 mmHg 84%
    02:00 -1°C° 0 mm 1 mps 635 mmHg 83%
    03:00 -1°C° 0 mm 1 mps 635 mmHg 82%
    04:00 -1°C° 0 mm 1 mps 634 mmHg 82%
    05:00 -1°C° 0 mm 1 mps 634 mmHg 81%
    06:00 -1°C° 0 mm 1 mps 634 mmHg 80%
    07:00 0°C° 0 mm 1 mps 634 mmHg 82%
    08:00 +1°C° 0 mm 1 mps 634 mmHg 85%
    09:00 +2°C° 0 mm 1 mps 635 mmHg 87%
    10:00 +2°C° 0 mm 1 mps 634 mmHg 87%
    11:00 +2°C° 0 mm 2 mps 634 mmHg 87%
    12:00 +3°C° 0 mm 2 mps 634 mmHg 87%
    13:00 +3°C° 0 mm 2 mps 634 mmHg 87%
    14:00 +3°C° 0 mm 2 mps 633 mmHg 88%
    15:00 +4°C° 0 mm 1 mps 633 mmHg 89%
    16:00 +3°C° 0 mm 1 mps 632 mmHg 89%
    17:00 +2°C° 0 mm 1 mps 632 mmHg 89%
    18:00 +1°C° 0 mm 1 mps 631 mmHg 90%
    19:00 +1°C° 0 mm 1 mps 631 mmHg 90%
    20:00 +1°C° 0 mm 1 mps 631 mmHg 90%
    21:00 0°C° 0 mm 0 mps 631 mmHg 90%
    22:00 0°C° 0.2 mm 0 mps 630 mmHg 90%
    23:00 +1°C° 0.2 mm 1 mps 630 mmHg 90%

    20 February, Thursday

    Time Temperature Precipitation Wind Pressure Humidity
    00:00 +1°C° 0.2 mm 1 mps 630 mmHg 91%
    01:00 +1°C° 0.5 mm 1 mps 630 mmHg 93%
    02:00 +1°C° 0.5 mm 1 mps 630 mmHg 95%
    03:00 +1°C° 0.5 mm 1 mps 629 mmHg 98%
    04:00 +1°C° 0 mm 1 mps 629 mmHg 97%
    05:00 +1°C° 0 mm 1 mps 629 mmHg 97%
    06:00 +1°C° 0 mm 1 mps 629 mmHg 97%
    07:00 +1°C° 0 mm 1 mps 629 mmHg 96%
    08:00 +1°C° 0 mm 1 mps 629 mmHg 96%
    09:00 +1°C° 0 mm 1 mps 630 mmHg 95%
    10:00 +1°C° 0 mm 2 mps 630 mmHg 94%
    11:00 +1°C° 0 mm 2 mps 629 mmHg 92%
    12:00 +2°C° 0 mm 2 mps 629 mmHg 90%
    13:00 +1°C° 0 mm 2 mps 629 mmHg 91%
    14:00 +2°C° 0 mm 1 mps 629 mmHg 93%
    15:00 +2°C° 0 mm 1 mps 628 mmHg 94%
    16:00 +2°C° 0.1 mm 1 mps 628 mmHg 95%
    17:00 +1°C° 0.1 mm 1 mps 628 mmHg 96%
    18:00 0°C° 0.1 mm 0 mps 628 mmHg 97%
    19:00 0°C° 0 mm 0 mps 628 mmHg 97%
    20:00 0°C° 0 mm 0 mps 628 mmHg 97%
    21:00 0°C° 0 mm 0 mps 628 mmHg 97%
    22:00 0°C° 0 mm 0 mps 628 mmHg 97%
    23:00 0°C° 0 mm 0 mps 628 mmHg 97%

    21 February, Friday

    Time Temperature Precipitation Wind Pressure Humidity
    00:00 0°C° 0 mm 0 mps 628 mmHg 96%
    01:00 0°C° 0 mm 0 mps 628 mmHg 96%
    02:00 -1°C° 0 mm 0 mps 628 mmHg 96%
    03:00 -1°C° 0 mm 0 mps 627 mmHg 96%
    04:00 -1°C° 0 mm 0 mps 628 mmHg 95%
    05:00 -1°C° 0 mm 0 mps 628 mmHg 95%
    06:00 -1°C° 0 mm 0 mps 628 mmHg 94%
    07:00 +1°C° 0 mm 1 mps 629 mmHg 90%
    08:00 +2°C° 0 mm 1 mps 629 mmHg 86%
    09:00 +3°C° 0 mm 1 mps 630 mmHg 82%
    16:00 +3°C° 0 mm 3 mps 630 mmHg 75%
    17:00 +2°C° 0 mm 2 mps 630 mmHg 80%
    18:00 +1°C° 0 mm 2 mps 630 mmHg 83%
    19:00 +1°C° 0 mm 2 mps 630 mmHg 84%
    20:00 +1°C° 0 mm 2 mps 630 mmHg 84%
    21:00 +1°C° 0 mm 2 mps 630 mmHg 84%
    22:00 +1°C° 0 mm 2 mps 630 mmHg 84%
    23:00 +1°C° 0 mm 1 mps 630 mmHg 84%

    22 February, Saturday

    Time Temperature Precipitation Wind Pressure Humidity
    00:00 +1°C° 0 mm 1 mps 630 mmHg 84%
    01:00 +1°C° 0 mm 1 mps 630 mmHg 83%
    02:00 +1°C° 0 mm 1 mps 630 mmHg 83%
    03:00 +1°C° 0 mm 1 mps 630 mmHg 83%
    04:00 +1°C° 0 mm 1 mps 631 mmHg 83%
    05:00 +1°C° 0 mm 1 mps 631 mmHg 84%
    06:00 +1°C° 0 mm 1 mps 631 mmHg 84%
    07:00 +2°C° 0 mm 1 mps 632 mmHg 82%
    08:00 +2°C° 0 mm 1 mps 632 mmHg 80%
    09:00 +3°C° 0 mm 1 mps 633 mmHg 78%
    10:00 +4°C° 0 mm 1 mps 633 mmHg 79%
    11:00 +4°C° 0 mm 1 mps 633 mmHg 79%
    12:00 +4°C° 0 mm 2 mps 633 mmHg 79%
    13:00 +3°C° 0 mm 2 mps 633 mmHg 80%
    14:00 +3°C° 0 mm 2 mps 632 mmHg 82%
    15:00 +3°C° 0 mm 2 mps 632 mmHg 83%
    16:00 +2°C° 0 mm 2 mps 632 mmHg 87%
    17:00 +3°C° 0 mm 1 mps 632 mmHg 91%
    18:00 +2°C° 0 mm 1 mps 631 mmHg 95%
    19:00 +2°C° 0 mm 1 mps 631 mmHg 94%
    20:00 +2°C° 0 mm 1 mps 631 mmHg 94%
    21:00 +2°C° 0 mm 1 mps 631 mmHg 94%
    22:00 0°C° 0 mm 0 mps 631 mmHg 94%
    23:00 0°C° 0 mm 0 mps 631 mmHg 94%
    Show more